Menu

In Person Flight Instructor Refresher Courses

Air Safety Institute Logo

Welcome

Flight Instructor Refresher Course

The AOPA Air Safety Institute In-Person Flight Instructor Refresher Course gives you the opportunity to renew your flight instructor certificate together with other flight instructors in your area. The two day course is led by expert presenters who are knowledgeable and engaging. Not only will you refresh your knowledge and pick up some new information, but you will also be able to network with other local professional pilots.

Location Start Time End Time State Latitude Longitude cssIndex Topic cssIndex
Reno, NV 08-04-2018 7:30 AM 08-05-2018 5:00 PM Learn More Nevada 39.530088000000000 -119.814463000000000 1 mtgFlightInstructorRefresherCourse FIRC_NV_180804
Atlanta, GA 08-18-2018 7:30 AM 08-19-2018 5:00 PM Learn More Georgia 33.659125000000000 -84.437489000000000 1 mtgFlightInstructorRefresherCourse FIRC_GA_180818
Fort Worth, TX 08-25-2018 7:30 AM 08-26-2018 5:00 PM Learn More Texas 32.823115000000000 -97.056111000000000 1 mtgFlightInstructorRefresherCourse FIRC_TX_180825
Tempe, AZ 09-15-2018 7:30 AM 09-16-2018 5:00 PM Learn More Arizona 33.411417000000000 -111.969673000000000 1 mtgFlightInstructorRefresherCourse FIRC_AZ_180915
Sandston, VA 09-15-2018 7:30 AM 09-16-2018 5:00 PM Learn More Virginia 37.524746000000000 -77.325863000000000 1 mtgFlightInstructorRefresherCourse FIRC_VA_180915
Colorado Springs, CO 09-22-2018 7:30 AM 09-23-2018 5:00 PM Learn More Colorado 38.807575000000000 -104.726647000000000 1 mtgFlightInstructorRefresherCourse FIRC_CO_180922
Santa Clara, CA 10-06-2018 7:30 AM 10-07-2018 5:00 PM Learn More California 37.382500000000000 -121.979300000000000 1 mtgFlightInstructorRefresherCourse FIRC_CA_181006
Indianapolis, IN 10-13-2018 7:30 AM 10-14-2018 5:00 PM Learn More Indiana 39.729669000000000 -86.269647000000000 1 mtgFlightInstructorRefresherCourse FIRC_IN_181013
Dulles, VA 10-13-2018 7:30 AM 10-14-2018 5:00 PM Learn More Virginia 38.985093000000000 -77.429156000000000 1 mtgFlightInstructorRefresherCourse FIRC_VA_181013
Columbia, SC 10-20-2018 7:30 AM 10-21-2018 5:00 PM Learn More South Carolina 34.014993000000000 -81.076972000000000 1 mtgFlightInstructorRefresherCourse FIRC_SC_181020
Windsor Locks, CT 10-20-2018 7:30 AM 10-21-2018 5:00 PM Learn More Connecticut 41.917587000000000 -72.673259000000000 1 mtgFlightInstructorRefresherCourse FIRC_CT_181020
San Diego, CA 11-10-2018 7:30 AM 11-11-2018 5:00 PM Learn More California 32.725703000000000 -117.223193000000000 1 mtgFlightInstructorRefresherCourse FIRC_CA_181110
Atlanta, GA 11-10-2018 7:30 AM 11-11-2018 5:00 PM Learn More Georgia 33.659125000000000 -84.437489000000000 1 mtgFlightInstructorRefresherCourse FIRC_GA_181110
Austin, TX 11-17-2018 7:30 AM 11-18-2018 5:00 PM Learn More Texas 30.214456000000000 -97.749781000000000 1 mtgFlightInstructorRefresherCourse FIRC_TX_181117
Anchorage, AK 11-17-2018 7:30 AM 11-18-2018 5:00 PM Learn More Alaska 61.177230000000000 -149.941799000000000 1 mtgFlightInstructorRefresherCourse FIRC_AK_181117
Orlando, FL 12-01-2018 7:30 AM 12-02-2018 5:00 PM Learn More Florida 28.463234000000000 -81.311465000000000 1 mtgFlightInstructorRefresherCourse FIRC_FL_181201
Denver, CO 12-01-2018 7:30 AM 12-02-2018 5:00 PM Learn More Colorado 39.773051000000000 -104.809523000000000 1 mtgFlightInstructorRefresherCourse FIRC_CO_181201
Bellevue, WA 01-05-2019 7:30 AM 01-06-2019 5:00 PM Learn More Washington 47.606941000000000 -122.190566000000000 1 mtgFlightInstructorRefresherCourse FIRC_WA_190105
Costa Mesa, CA 01-05-2019 7:30 AM 01-06-2019 5:00 PM Learn More California 33.685262000000000 -117.885804000000000 1 mtgFlightInstructorRefresherCourse FIRC_CA_190105
Jackson, MS 01-12-2019 7:30 AM 01-13-2019 5:00 PM Learn More Mississippi 32.399544000000000 -90.143421000000000 1 mtgFlightInstructorRefresherCourse FIRC_MS_190112
Portland, OR 01-12-2019 7:30 AM 01-13-2019 5:00 PM Learn More Oregon 45.564603000000000 -122.576103000000000 1 mtgFlightInstructorRefresherCourse FIRC_OR_190112
San Antonio, TX 01-12-2019 7:30 AM 01-13-2019 5:00 PM Learn More Texas 29.505730000000000 -98.544923000000000 1 mtgFlightInstructorRefresherCourse FIRC_TX_190112
Charlotte, NC 01-12-2019 7:30 AM 01-13-2019 5:00 PM Learn More North Carolina 35.238391000000000 -80.921739000000000 1 mtgFlightInstructorRefresherCourse FIRC_NC_190112
Santa Clara, CA 01-19-2019 7:30 AM 01-20-2019 5:00 PM Learn More California 37.382500000000000 -121.979300000000000 1 mtgFlightInstructorRefresherCourse FIRC_CA_190119
Alcoa, TN 01-19-2019 7:30 AM 01-20-2019 5:00 PM Learn More Tennessee 35.803000000000000 -83.995400000000000 1 mtgFlightInstructorRefresherCourse FIRC_TN_190119
Romulus, MI 01-19-2019 7:30 AM 01-20-2019 5:00 PM Learn More Michigan 42.245628000000000 -83.352261000000000 1 mtgFlightInstructorRefresherCourse FIRC_MI_190119
Frederick, MD Special Aviation Location 01-26-2019 7:30 AM 01-27-2019 5:00 PM Learn More Maryland 39.418320000000001 -77.336160000000007 1 mtgFlightInstructorRefresherCourse FIRC_MD_190126

Questions? Contact us at [email protected] or 800/USA-AOPA (800/872-2672)
Monday - Friday, 8:30 am - 6:00 pm ET